OPS 4682 DEB, 38441

Orbit data source: Space-Track

OPS 4682 DEB, 38441 is space debris in LEO originally from a launch on Sat, 03 Apr 1965 UTC launched from the Air Force Western Test Range (AFWTR). Debris objects in space refer to the collection of defunct objects orbiting the Earth. Examples of debris include non-operational satellites, rocket bodies, and fragments generated from explosions, collisions, or faulty payload assembly.

Loading next visibility...
Identifier
38441, 1965-027EW
Orbit
LEO
Country
Flag of USUS
Related business
Manufacturer
Unknown
Mission
Spacecraft
Bus & Motor
Unknown
Mass
Unknown
Launch date (UTC)
1965-04-03 (61 years ago)
Launch vehicle
Unknown
Launch site
Air Force Western Test Range (AFWTR)
Object type
Payload
Rocket body
Debris
Shape & HBR
Unknown shape, 0.1 m
Radar Cross Section
Small (<0.1 m²)

Expand to show TLE details & history
Last TLE update: 2 days ago

TLE from 2 days ago
0 OPS 4682 DEB
1 38441U 65027EW  25300.42136511  .00000172  00000-0  57718-3 0  9994
2 38441  90.2459   2.8872 0031114  73.7623 286.6916 12.96079084582263
Epoch: 2025-10-27T10:06Z
TLE epoch observation values (Epoch: 2025-10-27T10:06:45.945Z)
Latitude
-0.00006°
Longitude
175.17231°
Altitude
1,273.591 km
Speed
7.222 km/s
True Right ascension
00h 11m 32s
True Declination
0° 00' 00"
Sunlit
Object was in full shadow at epoch
Visualization orbit readout
Latitude
Unknown
Longitude
Unknown
Altitude
Unknown
Speed
Unknown
Apparent Right ascension
Unknown
Apparent Declination
Unknown
Sunlit
N/A
Visualization observer readout
Local Sidereal Time
10:33:11
Azimuth
Unknown
Elevation
Unknown
Doppler factor
Unknown
Orbital elements
Apogee altitude
1,298.431 km
Perigee altitude
1,250.81 km
Semi-major axis
7,652.758 km
Eccentricity
0.00311
Inclination
90.2459°
RAAN
2.8872°
Arg. of periapsis
73.7623°
True anomaly
286.3497°
Mean anomaly
286.6916°
Eccentric anomaly
286.52069°
Mean motion
3.24202 °/min
Orbital period
111.04 mins
BSTAR
0.00057718
Loading maneuver chart data...
Computing Atmospheric mass density...
Loading historical data...
Loading historical data...
Loading historical data...
Loading historical data...
Loading historical data...
Loading historical data...
Loading historical data...

Documentation

Showing up to 5 results
|